Home   Weather   Jackson   Past weeks

Flag for USA Past Weather in Jackson, Mississippi, USA — Yesterday and Last 2 Weeks

Now
53 °F

Overcast.


Feels Like: 51 °F
Forecast: 51 / 60 °F
Wind: 8 mph from Northwest

Location: Hawkins Field

Current Time: Apr 23, 2017 at 5:21:44 am

Latest Report: Apr 23, 2017 at 4:53 am


Visibility: 10 mi

Pressure: 29.89 "Hg

Humidity: 89%

Dew Point: 50 °F

Location of JacksonLocation

Past Weather in Jackson — Graph

°F

Jackson Temperature Yesterday

Maximum temperature yesterday: 80 °F (at 1:53 pm)
Minimum temperature yesterday: 57 °F (at 11:35 pm)
Average temperature yesterday: 69 °F

High & Low Weather Summary for the Past Weeks

 TemperatureHumidityPressure
High85 °F (Apr 19, 3:53 pm)97% (Apr 13, 6:53 am)30.25 "Hg (Apr 13, 6:53 am)
Low43 °F (Apr 8, 6:53 am)28% (Apr 8, 2:53 pm)29.78 "Hg (Apr 22, 4:53 pm)
Average70 °F73%30.08 "Hg
* Reported Apr 8 3:53 am — Apr 23 3:53 am, Jackson, Weather by CustomWeather, © 2017

Note: Actual official high and low records may vary slightly from our data, if they occured in-between our weather recording intervals... More about our weather records

Advertising

Jackson Weather History for the Previous 24 Hours

Scroll right to see more
 ConditionsComfort  
Time TempWeatherWind HumidityBarometerVisibility
3:53 am
Sun, Apr 23
53 °FMostly cloudy.8 mph89%29.89 "Hg10 mi
2:53 am54 °FLow clouds.7 mph93%29.89 "Hg10 mi
1:53 am55 °FMostly cloudy.8 mph93%29.90 "Hg10 mi
1:38 am55 °FLight rain. Overcast.7 mph93%29.92 "Hg9 mi
1:23 am56 °FLight rain. Overcast.5 mph90%29.92 "Hg9 mi
1:02 am56 °FMostly cloudy.7 mph90%29.93 "Hg10 mi
11:53 pm
Sat, Apr 22
57 °FPassing clouds.7 mph90%29.92 "Hg10 mi
11:35 pm57 °FOvercast.6 mph93%29.95 "Hg10 mi
10:53 pm58 °FMostly cloudy.6 mph90%29.93 "Hg10 mi
10:03 pm59 °FOvercast.8 mph90%29.95 "Hg10 mi
9:34 pm60 °FLight rain. Mostly cloudy.6 mph93%29.92 "Hg10 mi
8:53 pm60 °FLight rain. Fog.6 mph93%29.90 "Hg4 mi
8:28 pm61 °FMostly cloudy.7 mph90%29.92 "Hg10 mi
8:15 pm61 °FThundershowers. Overcast.8 mph90%29.91 "Hg10 mi
8:00 pm61 °FThunderstorms. Mostly cloudy.12 mph93%29.91 "Hg9 mi
6:53 pm63 °FLight rain. Fog.12 mph93%29.86 "Hg5 mi
6:36 pm64 °FLight rain. Fog.13 mph94%29.88 "Hg2 mi
5:53 pm68 °FLight rain. Low clouds.9 mph93%29.83 "Hg10 mi
5:35 pm69 °FLight rain. Fog.14 mph93%29.84 "Hg2 mi
5:21 pm70 °FHeavy rain. Fog.13 mph93%29.84 "Hg1 mi
4:53 pm76 °FBroken clouds.8 mph80%29.78 "Hg10 mi
4:35 pm76 °FThundershowers. Mostly cloudy.9 mph77%29.81 "Hg5 mi
4:10 pm77 °FBroken clouds.8 mph74%29.82 "Hg10 mi
4:00 pm77 °FThundershowers. Broken clouds.12 mph74%29.81 "Hg10 mi
3:29 pm77 °FThunderstorms. Cloudy.9 mph79%29.82 "Hg10 mi
3:00 pm77 °FThundershowers. More clouds than sun.5 mph79%29.84 "Hg10 mi
1:53 pm80 °FPartly sunny.14 mph62%29.84 "Hg10 mi
12:53 pm76 °FMore clouds than sun.8 mph77%29.87 "Hg10 mi
12:27 pm76 °FMore clouds than sun.7 mph80%29.90 "Hg10 mi
12:20 pm74 °FLight rain. Cloudy.6 mph82%29.91 "Hg2 mi
11:53 am78 °FCloudy.12 mph64%29.89 "Hg10 mi
11:19 am77 °FMostly cloudy.8 mph69%29.92 "Hg10 mi
10:53 am77 °FCloudy.10 mph69%29.90 "Hg10 mi
10:26 am75 °FPartly sunny.9 mph74%29.91 "Hg10 mi
10:00 am73 °FPartly sunny.9 mph79%29.92 "Hg10 mi
9:18 am71 °FMostly cloudy.5 mph81%29.92 "Hg10 mi
8:53 am69 °FLow clouds.3 mph87%29.91 "Hg10 mi
7:53 am68 °FPartly sunny.5 mph87%29.91 "Hg10 mi
6:53 am65 °FSunny.3 mph94%29.88 "Hg10 mi
5:53 am66 °FClear.No wind87%29.87 "Hg10 mi
Weather by CustomWeather, © 2017

See weather overviewHow to use our weather pages